Regional Weather Roundup
Issued by NWS Pendleton, OR

Home | Current Version | Previous Version | Text Only | Print | Product List | Glossary On
Versions: 1 2 3 4 5 6 7 8 9 10 11 12 13 14 15 16 17 18 19 20 21 22 23 24 25 26 27 28 29 30 31 32 33 34 35 36 37 38 39 40 41 42 43 44 45 46 47 48 49 50
000
ASUS46 KPDT 290825
RWRPDT
PENDLETON REGIONAL WEATHER ROUNDUP
NATIONAL WEATHER SERVICE PENDLETON OREGON
100 AM PDT FRI AUG 29 2014

NOTE: FAIR INDICATES FEW OR NO CLOUDS BELOW 12,000 FEET WITH NO
SIGNIFICANT WEATHER AND/OR OBSTRUCTIONS TO VISIBILITY.

# INDICATES UNOFFICIAL STATION AND DATA

WAZ520-290910-
EAST SLOPES OF WASHINGTON CASCADES

CITY            SKY/WX      TMP DP  RH  WIND    PRES   REMARKS
#CLE ELUM HS    N/A         62  53  72  W2      29.96S
#CLE ELUM 2NW   N/A         61  52  72  SW1     N/A
#CLE ELUM LAKE  N/A         58  50  75  CALM    29.89F
#CLIFFDEL 2NW   N/A         58  52  80  CALM    N/A
#GLENWOOD       N/A         50  47  89  CALM    29.93S
#NELSON         N/A         60  54  81  CALM    29.93S
#NELSON 3SW     N/A         58  51  77  CALM    30.09F
#NILE           N/A         59  52  78  CALM    29.21S
#RONALD 2NW     N/A         60  50  69  N2      29.90F
#TEANAWAY 4NE   N/A         59  52  78  CALM    N/A
#TROUT LAKE 1NE N/A         54  50  86  CALM    29.92S
$$

WAZ521-290910-
SIMCOE HIGHLANDS

CITY            SKY/WX      TMP DP  RH  WIND    PRES   REMARKS
#BICKLETON HS   N/A         58  39  49  CALM    30.06S
#CENTERVILLE 1SWN/A         63  51  65  CALM    29.88R
#GOLDENDALE     N/A         65  52  63  N3      N/A
#GOLDENDALE 1NE N/A         64  51  63  S3      N/A
#GOLDENDALE 1S  N/A         63  53  70  CALM    29.96S
#GOLDENDALE 5WNWN/A         62  52  70  NW3     29.89S
#GOODNOE HILLS  N/A         66  55  68  NW5     29.91S
#LYLE 6NE       N/A         66  55  68  CALM    29.89F
$$

WAZ026-290910-
KITTITAS VALLEY

CITY            SKY/WX      TMP DP  RH  WIND    PRES   REMARKS
ELLENSBURG AP   MOCLDY      66  52  61  NW18    29.98S
#ELLENSBURG CWU N/A         63  53  70  NW12    29.86F
#ELLENSBURG 3NE N/A         63  53  70  N7      29.97F
#ELLENSBURG     N/A         67  56  68  NW5     N/A
#ELLENSBURG 1E  N/A         64  50  60  CALM    N/A
#KITTITAS 3S    N/A         59  51  75  CALM    29.88S
#THORP 6N       N/A         60  52  75  NW9     29.92S
$$

WAZ027-290910-
YAKIMA VALLEY

CITY            SKY/WX      TMP DP  RH  WIND    PRES   REMARKS
SUNNYSIDE AP    MOCLDY      57  54  90  E3      29.93R
YAKIMA AIRPORT  CLOUDY      71  53  53  NW3     29.96R
YAKIMA-VAGABOND CLOUDY      66  46  48  E7      29.97S
#COWICHE 1N     N/A         65  53  65  NW7     30.13S
#GRANDVIEW      N/A         64  51  63  CALM    29.91R
#MABTON         N/A         70  52  53  SW1     29.92S
#MOXEE 2E       N/A         68  40  36  CALM    29.90F
#NACHES 2SW     N/A         65  55  70  W8      29.98S
#OUTLOOK DOT    N/A         N/A N/A N/A W5      N/A
#SELAH 8E       N/A         60  44  55  SE3     N/A
#TERRACE HTS    N/A         68  48  49  NE2     29.84F
#TOPPENISH      N/A         69  54  59  SW1     29.82R
#WEST VALLEY    N/A         68  53  59  NW2     29.87S
#W YAKIMA       N/A         68  53  59  N1      29.88S
#WHITE SWAN 5E  N/A         65  55  70  CALM    29.90R
#WILEY CITY 3W  N/A         57  40  53  CALM    29.96S
$$

WAZ028-290910-
LOWER COLUMBIA BASIN...WASHINGTON

CITY            SKY/WX      TMP DP  RH  WIND    PRES   REMARKS
PASCO           MOCLDY      69  52  55  NE5     29.92S
PROSSER AWOS    N/A         63  54  72  NE3     29.96R
RICHLAND AWOS   MOCLDY      68  48  49  CALM    29.92R
#BASIN CITY 5SW N/A         67  53  61  CALM    29.93R
#BENTON CITY    N/A         65  51  60  CALM    29.81R
#CONNELL 5N     N/A         62  49  62  E2      29.87R
#CONNELL 5NW    N/A         61  52  72  CALM    29.86R
#ELTOPIA        N/A         62  51  67  CALM    29.86R
#ELTOPIA 6NW    N/A         64  53  67  CALM    28.90S
#KENNEWICK 3S   N/A         70  50  49  CALM    29.89S
#PATERSON       N/A         67  55  65  CALM    29.89R
#PROSSER        N/A         72  45  38  S3      29.89R
#SAGEMOOR 2W    N/A         65  54  68  CALM    29.75R
#TOUCHET 2S     N/A         72  51  48  SW7     29.88R
#WEST PASCO     N/A         79  50  36  NE1     29.90R
$$

WAZ029-290910-
FOOTHILLS OF THE BLUES...WASHINGTON

CITY            SKY/WX      TMP DP  RH  WIND    PRES   REMARKS
WALLA WALLA AP  PTCLDY      70  44  39  S9      29.97R
#COLLEGE PLACE  N/A         68  41  37  SE1     29.95R
#DAYTON SCHOOL  N/A         60  37  42  CALM    29.96R
#LOWDEN 2SE     N/A         59  48  67  CALM    29.90R
#PLEASANT VIEW 1N/A         65  42  43  SW3     29.91R
#PRESCOTT       N/A         56  43  62  CALM    29.90R
#SUDBURY        N/A         58  N/A N/A CALM    N/A
#WHITMAN COLLEGEN/A         69  47  45  SE3     29.95R
#WAITSBURG 8N   N/A         61  26  26  CALM    29.88R
#WALLA WALLA 5E N/A         71  40  32  SW6     N/A
#WALLA WALLA U  N/A         67  46  47  CALM    29.90R
#WHITMAN MISSIONN/A         60  48  64  CALM    29.92R
$$

WAZ030-290910-
BLUE MOUNTAINS...WASHINGTON

CITY            SKY/WX      TMP DP  RH  WIND    PRES   REMARKS
$$

ORZ009-041-WAZ024-290910-
COLUMBIA RIVER GORGE

CITY            SKY/WX      TMP DP  RH  WIND    PRES   REMARKS
HOOD RIVER AP   PTCLDY      61  52  72  CALM    29.97F
THE DALLES AP   PTCLDY      71  53  53  CALM    29.94S
#ARLINGTON AIRPON/A         68  53  59  W6      N/A
#ARLINGTON HS   N/A         69  53  57  CALM    29.82R
#MARYHILL 2W    N/A         70  56  61  SW5     N/A
#MOSIER 1S      N/A         68  47  47  W3      30.00S
#MURDOCK        N/A         74  58  57  W13     29.94F
#RUFUS DOT      N/A         74  55  51  NE3     N/A

$$

ORZ510-290910-
NORTH CENTRAL OREGON

CITY            SKY/WX      TMP DP  RH  WIND    PRES   REMARKS
#CHENOWITH 1W   N/A         64  51  63  W20     N/A
#COW CYN RST AREN/A         63  46  54  NW3     N/A
#DUFUR 9E       N/A         66  48  52  W5      29.95F
#GRASS VALLEY   N/A         56  44  64  S1      N/A
#GRASS VALLEY 1SN/A         58  43  57  CALM    29.95S
#KENT DOT       N/A         57  36  45  S2      N/A
#MAUPIN SCHOOL  N/A         66  47  50  CALM    28.86S
#MORO SCHOOL    N/A         66  53  63  W5      30.01S
#SHANIKO 5WSW   N/A         62  40  44  W6      N/A
#SHANIKO 4NW    N/A         61  43  51  W8      30.08S
#TYGH VALLEY 2NEN/A         58  40  51  CALM    29.93S
#WAPANITIA AIRPON/A         62  50  65  W2      29.93S
#WASCO DOT      N/A         67  54  63  W6      N/A
#WASCO AIRPORT  N/A         65  49  56  NW5     N/A
#WASCO 5NE      N/A         66  52  61  CALM    29.91S
$$

ORZ511-290910-
CENTRAL OREGON

CITY            SKY/WX      TMP DP  RH  WIND    PRES   REMARKS
BEND AIRPORT    CLEAR       55  43  64  CALM    30.09S
MADRAS AIRPORT  CLEAR       59  48  67  N5      30.06S
REDMOND AIRPORT CLEAR       56  44  64  CALM    30.06R
#BEND 6E        N/A         57  42  57  CALM    29.84S
#BEND 1SW       N/A         54  43  66  CALM    N/A
#BEND-AWBREY    N/A         60  48  64  W1      29.90S
#BEND-KIM LN    N/A         59  47  64  S1      30.05S
#CROOKED RVR RANN/A         65  50  58  CALM    29.90S
#CULVER         N/A         61  50  67  E1      30.01S
#LAKE BILLY CHINN/A         63  33  32  CALM    30.08R
#POWELL BUTTE 3EN/A         57  46  67  SE1     N/A
#POWELL BUTTE   N/A         59  45  60  SW2     29.71S
#PRINEVILLE 3N  N/A         56  48  74  CALM    29.87R
#WARM SPRINGS   N/A         65  50  58  CALM    29.99R


ORZ509-290910-
EAST SLOPES OF OREGON CASCADES

CITY            SKY/WX      TMP DP  RH  WIND    PRES   REMARKS
#BLUE BOX PASS  N/A         55   2  11  NW5     N/A
#BLACK BUTTE RNCN/A         59  48  67  CALM    29.91S
#CAMP SHERMAN   N/A         53  46  77  CALM    29.91F
#LA PINE DOT    N/A         50  43  77  CALM    N/A
#LA PINE 4NW    N/A         47  40  76  CALM    29.98S
#LAVA BUTTE DOT N/A         52  44  74  SW6     N/A
#SISTERS AIRPOR N/A         54  49  83  CALM    30.04F
#SISTERS ODOT   N/A         52  N/A N/A CALM    N/A
#SISTERS 1NW    N/A         57  42  57  N6      N/A
#SISTERS 3N     N/A         52  41  66  CALM    N/A
#SUNRIVER       N/A         51  46  83  CALM    29.82S
#SUNRIVER AP    N/A         49  43  80  CALM    29.88F
#SUTTLE LK DOT  N/A         55  47  74  CALM    N/A
#TUMALO 3W      N/A         63  48  58  CALM    29.80S
#WANOGA BUTTE D N/A         56  39  53  CALM    N/A

$$

ORZ044-290910-
LOWER COLUMBIA BASIN...OREGON

CITY            SKY/WX      TMP DP  RH  WIND    PRES   REMARKS
HERMISTON       PTCLDY      65  51  60  S8      29.94R
#BOARDMAN SCHOOLN/A         70  55  59  W1      29.91S
#BOARDMAN 3W    N/A         68  55  63  SW7     29.62S
#BOARDMAN 8SW   N/A         65  56  73  SW5     29.91R
#ECHO 8SW       N/A         68  49  51  SW6     29.92R
#IONE SCHOOL    N/A         66  48  52  CALM    29.96S
#IRRIGON 4NW    N/A         65  57  75  W1      N/A
#UMATILLA SCHOOLN/A         64  60  87  CALM    30.00R
#UMATILLA       N/A         66  52  61  CALM    29.91R
$$

ORZ507-290910-
NORTHERN FOOTHILLS OF THE BLUES

CITY            SKY/WX      TMP DP  RH  WIND    PRES   REMARKS
PENDLETON AIRPT CLEAR       59  37  44  E8      29.98R
#ADAMS 3WNW     N/A         57  37  47  CALM    29.91R
#ATHENA         N/A         58  39  49  CALM    29.93R
#HELIX SCHOOL   N/A         59  43  55  CALM    29.90R
#HELIX 3N       N/A         63  44  50  N7      29.96R
#HOLDMAN 5SE    N/A         65  48  54  CALM    29.98R
#HOLDMAN 6E     N/A         66  47  50  N5      29.72S
#M-F GROVE ELEM N/A         69  40  35  CALM    29.95R
#M-FREEWATER 5SEN/A         64  42  45  CALM    29.97R
#PENDLETON DNTN N/A         63  33  32  CALM    29.92S
#PDT AQUATIC CTRN/A         62  37  39  CALM    29.98S
#PDT SUNRIDGE   N/A         58  36  44  CALM    29.98R
#PENDLETON 7NW  N/A         65  45  48  CALM    30.19F
#PILOT ROCK     N/A         63  33  32  S7      30.01S
#TUTUILLA       N/A         59  43  55  CALM    29.86R
#UMAPINE 2E     N/A         67  52  59  CALM    29.91R
#WESTON SCHOOL  N/A         65  37  35  W2      29.95R

$$

ORZ508-290910-
SOUTHERN FOOTHILLS OF THE BLUES

CITY            SKY/WX      TMP DP  RH  WIND    PRES   REMARKS
LEXINGTON       PTCLDY      63  46  54  E9      30.02R
#AJAX           N/A         66  42  42  W1      29.96S
#CONDON SCHOOL  N/A         62  46  56  CALM    30.01S
#CONDON 5W      N/A         62  43  50  CALM    30.03S
#FOSSIL SCHOOL  N/A         55  39  55  CALM    30.03R
#HEPPNER EOC    N/A         61  43  51  E1      29.88R
#HEPPNER 4NE    N/A         64  47  54  SW3     29.90S
#LEXINGTON 2SE  N/A         61  47  60  SE2     29.97R
#MIKKALO        N/A         66  46  48  W2      30.00F
#OLEX 4N        N/A         68  51  55  CALM    29.96R
#RUGGS 5NE      N/A         61  41  48  SW2     30.20S
#RUGGS 2SW      N/A         60  40  47  SW5     29.96R

$$

ORZ502-503-290910-
BLUE MOUNTAINS

CITY            SKY/WX      TMP DP  RH  WIND    PRES   REMARKS
MEACHAM         CLEAR       43  33  67  CALM    30.08F
#BATTLE MTN DOT N/A         55  39  55  S2      N/A
#HARDMAN 10S    N/A         55  37  51  CALM    30.15S
#HEPPNER 15SE   N/A         50  39  66  CALM    30.02R
#LADD CYN SMT   N/A         57  25  29  S2      N/A
#LADD CREEK ODOTN/A         55  34  45  W3      N/A
#LONG CREEK HS  N/A         56  41  57  CALM    N/A
#N POWDER DOT   N/A         54  35  48  NW3     N/A
#PIKES PEAK     N/A         64  47  54  SW13    27.99S
#TOLLGATE       N/A         55  43  64  CALM    30.05R
#TOLLGATE 9W    N/A         57  37  47  E1      N/A
#UKIAH          N/A         45  37  73  CALM    29.99R
#WESTON 4E      N/A         63  40  43  CALM    29.84S
$$

ORZ505-290910-
JOHN DAY BASIN

CITY            SKY/WX      TMP DP  RH  WIND    PRES   REMARKS
JOHN DAY        CLEAR       65  37  35  SW6     30.08S
#JOHN DAY KJDY  N/A         58  46  64  CALM    30.14F
#MONUMENT HS    N/A         61  40  46  CALM    30.03R
#MT. VERNON 5SE N/A         60  37  42  CALM    30.04S
#WINLOCK        N/A         56  38  51  CALM    30.13S
$$

ORZ506-290910-
OCHOCO AND JOHN DAY HIGHLANDS

CITY            SKY/WX      TMP DP  RH  WIND    PRES   REMARKS
#BUCK CREEK DOT N/A         63  45  52  NW2     N/A
#HORSE RIDGE DO N/A         48  33  56  SE2     N/A
#KEYES SMT DOT  N/A         52  37  56  CALM    N/A
#PAULINA SCHOOL N/A         55  40  57  CALM    30.07S
#PINE MTN OBS   N/A         59  33  37  W1      N/A
#SENECA 9NW     N/A         50  35  56  CALM    29.89S
$$

ORZ049-290910-
GRANDE RONDE VALLEY

CITY            SKY/WX      TMP DP  RH  WIND    PRES   REMARKS
LA GRANDE       PTCLDY      52  27  38  NE5     30.02S
#COVE           N/A         59  40  49  E2      29.95S
#COVE SCHOOL    N/A         60  38  44  CALM    30.01S
#COVE 6NW       N/A         52  39  61  CALM    29.95S
#ELGIN 3N       N/A         52  32  46  CALM    29.76S
#ELGIN 1E       N/A         53  37  54  CALM    N/A
#IMBLER SCHOOL  N/A         53  37  54  N3      29.99R
#ISLAND CITY 4N N/A         54  37  52  CALM    29.85S
#LADD CYN DOT   N/A         61  33  35  SE15    N/A
#LA GRANDE ELEM N/A         64  33  31  W9      30.01S
#UNION 1S       N/A         55  42  61  CALM    29.80S
$$

ORZ050-290910-
WALLOWA COUNTY

CITY            SKY/WX      TMP DP  RH  WIND    PRES   REMARKS
JOSEPH AIRPORT  CLEAR       52  43  71  S6      30.10S
#ENTERPRISE AP  N/A         55  40  57  CALM    30.02S
#ENTERPRISE HS  N/A         50  44  80  CALM    30.08S
#IMNAHA SCHOOL  N/A         62  47  58  CALM    29.96R
#IMNAHA 10S     N/A         61  44  53  SW5     30.03S
#JOSEPH 3N      N/A         48  41  77  E1      30.09F
#JOSEPH 3W      N/A         56  40  55  SW2     29.95F
#LOSTINE        N/A         51  43  74  E1      29.73R
#MT HOWARD 8000 N/A         53  29  39  SW3     30.29F
#PROMISE 1S     N/A         55  32  41  CALM    30.02R
#SHEEP RDG 7000 N/A         56  29  35  CALM    29.87S
#WALLOWA SCHOOL N/A         49  44  83  CALM    30.83R



$$



USA.gov is the U.S. government's official web portal to all federal, state and local government web resources and services.